Regional Weather Roundup
Issued by NWS Newport/Morehead, NC

Current Version | Previous Version | Text Only | Print | Product List | Glossary On
Versions: 1 2 3 4 5 6 7 8 9 10 11 12 13 14 15 16 17 18 19 20 21 22 23 24 25 26 27 28 29 30 31 32 33 34 35 36 37 38 39 40 41 42 43 44 45 46 47 48 49 50
000 ASUS42 KMHX 070125 RWRMHX WEATHER ROUNDUP FOR EASTERN NORTH CAROLINA NATIONAL WEATHER SERVICE NEWPORT/MOREHEAD CITY NC 900 PM EDT MON JUL 06 2015 NOTE: "FAIR" INDICATES FEW OR NO CLOUDS BELOW 12,000 FEET WITH NO SIGNIFICANT WEATHER AND/OR OBSTRUCTIONS TO VISIBILITY NCZ015>017-031-032-045>047-102-103-070200- NORTH COAST CITY SKY/WX TMP DP RH WIND PRES REMARKS EDENTON N/A 81 73 76 S10 30.07R ELIZABETH CITY CLEAR 80 74 81 S9 30.07S KITTY HAWK PTCLDY 80 73 81 S6 30.08S MANTEO PTCLDY 80 74 83 S20 30.08F $$ NCZ045>047-081-094-103-104-070200- CENTRAL COAST CITY SKY/WX TMP DP RH WIND PRES REMARKS FRISCO PTCLDY 78 75 90 S12 30.11S SWANQUARTER N/A 81 N/A N/A SW14G24 30.06S $$ NCZ095-097-098-100-101-070200- SOUTHERN COAST CITY SKY/WX TMP DP RH WIND PRES REMARKS BEAUFORT CLEAR 80 75 84 SW13 30.10F CEDAR ISLAND N/A 79 N/A N/A SW6G14 30.12F JACKSONVILLE PTCLDY 78 73 84 S10G18 30.09F PINEY ISLAND CLEAR N/A N/A N/A S8 30.10S WILMINGTON PTCLDY 80 72 76 SW5 30.10F $$ NCZ011>013-027>030-043-044-078>080-089-090>093-098-070200- COASTAL PLAIN CITY SKY/WX TMP DP RH WIND PRES REMARKS AHOSKIE CLEAR 79 73 82 S3 30.05S CLINTON PTCLDY 80 69 69 S6 30.08S ELIZABETHTOWN PTCLDY 77 69 75 S3 30.09F GOLDSBORO PTCLDY 82 72 70 S7 30.05S GREENVILLE CLEAR 81 72 74 S14 30.08S HAVELOCK PTCLDY 79 73 82 SW7 30.11F KENANSVILLE MOCLDY 78 66 66 CALM 30.09F KINSTON PTCLDY 81 72 74 S9 30.08S NEW BERN CLEAR 79 72 79 S10 30.10F RICHLANDS MOCLDY 75 70 83 CALM 30.09F ROCKY MOUNT CLEAR 79 71 76 CALM 30.05F WASHINGTON PTCLDY 79 72 78 S8 30.08S WHITEVILLE CLEAR 78 73 83 S3 30.09F $$ AMZ130-135-150-152-154-156-158-170-250-252-270-ANZ085-086-088-633-658-670-070200- MARINE OBSERVATIONS STATION/POSITION TIME TEMP WIND PRES WAVE SWELL AIR SEA DIR/SP/G HT/PER HT/PER (UTC) (F) (DEG/KT/KT) (MB) (FT/S) (FT/S) CHESAPEAKE LIGHT 0100 79 180/ 16/ 18 1018.4 64 E VA BEACH 0050 78 77 180/ 14/ 17 1018.6 3/ 8 2/ 8 DUCK 0100 80 76 180/ 15/ 21 N/A 2 E DUCK 0011 76 N/A 3/13 2/13 OREGON INLET 0100 81 83 180/ 17/ 21 1019.0 13E OREGON INLT 0100 78 N/A 3/13 2/13 HATTERAS CG 0100 80 81 190/ 5/ 9 1019.0 DIAMOND BUOY 0050 81 81 200/ 16/ 17 1019.4 3/ 4 2/ 9 CAPE LOOKOUT 0100 80 200/ 14/ 17 1019.0 BEAUFORT LAB 0100 80 83 210/ 12/ 14 1018.6 30 SE NEW RVR IN NOT AVBL 27 SE WRIGHTSVLE 0100 80 210/ 12/ 12 N/A 5 SE WRIGHTSVLE 0008 80 79 210/ 14/ 17 1019.7 225 S CAPE HAT 0050 81 80 180/ 8/ 10 1021.6 4/ 8 3/ 8 41 SE CHARLESTON 0050 81 83 200/ 12/ 14 1018.9 3/ 8 2/ 8 $$

USA.gov is the U.S. government's official web portal to all federal, state and local government web resources and services.